Location: Luna
(33.8188°N, 108.9564°W)
Time: 11:05:46
(UTC+00:00)

ISS - Visible Passes

Search period start: 28 November 2022 00:00
Search period end: 08 December 2022 00:00
Orbit: 411 x 420 km, 51.6° (Epoch: 28 November)

Date Brightness Start Highest point End Pass type
(mag) Time Alt. Az. Time Alt. Az. Time Alt. Az.
03 Dec -1.2 01:25:59 10° N 01:26:09 11° N 01:26:09 11° N visible
04 Dec -0.8 02:12:32 10° NW 02:12:40 11° NW 02:12:40 11° NW visible
05 Dec -2.6 01:23:57 10° NNW 01:26:27 27° NNE 01:26:27 27° NNE visible
06 Dec -2.1 00:35:32 10° NNW 00:37:53 17° NNE 00:40:12 10° ENE visible
06 Dec -1.8 02:11:34 10° WNW 02:13:26 28° W 02:13:26 28° W visible
07 Dec -3.9 01:22:34 10° NW 01:25:53 90° NW 01:27:54 22° SE visible
